Cloud_Cover
94 98 18 98 100 100 96 99 100 100 93 100 100 100 73 77 83 39 5 5 4 0 0 0 0 0 5 5 5 5 42 97 100 100 100 100 100 100
100 98 57 96 98 100 100 100 100 100 60 100 100 100 100 100 59 5 3 5 4 3 0 0 0 0 4 5 5 5 56 95 100 100 100 100 100 100
83 90 100 94 100 100 100 100 100 100 100 100 100 100 99 47 29 70 98 50 5 0 0 0 0 0 0 3 5 5 5 35 56 100 100 100 100 100
100 100 100 100 100 100 100 100 100 100 100 100 100 99 40 78 16 46 49 18 5 0 0 0 0 0 0 0 0 5 5 5 9 90 98 100 100 100
100 100 100 100 100 100 99 100 100 100 100 94 61 94 83 76 43 66 67 6 5 5 2 0 0 1 0 0 0 0 1 4 5 9 91 97 76 89
100 100 100 93 100 100 100 100 100 100 100 83 89 68 87 87 80 40 30 84 20 5 3 2 5 5 5 5 5 2 4 5 7 58 5 43 5 69
100 96 94 100 100 100 100 100 100 100 80 21 59 58 86 100 100 93 75 41 5 5 5 5 19 5 5 11 38 98 58 8 5 5 5 5 5 85
100 99 100 98 100 100 100 100 100 99 71 6 10 57 86 100 85 91 100 94 0 2 5 5 5 5 46 8 89 99 65 1 0 3 5 5 5 5
100 85 60 98 93 76 44 43 87 32 5 20 18 7 10 79 92 64 100 52 5 5 6 5 5 5 62 63 5 44 65 2 0 5 5 5 5 5
26 12 6 5 54 73 42 34 18 5 12 13 5 5 100 66 44 78 40 5 3 5 37 22 37 5 27 5 5 5 67 5 5 5 5 5 5 5
10 6 13 16 13 25 5 5 5 6 11 61 5 71 5 16 26 100 12 67 5 5 51 82 48 10 7 5 5 98 100 100 70 12 99 5 5 5
96 25 31 39 23 89 99 24 11 5 5 64 81 10 62 8 37 100 96 100 96 8 100 73 82 67 7 10 60 5 5 2 5 72 43 29 74 92
99 67 41 59 80 49 84 99 86 7 5 5 93 100 59 51 8 29 100 100 100 100 100 96 76 59 84 60 86 69 30 5 5 58 92 41 89 100
5 5 5 5 5 5 11 7 82 100 88 37 71 100 100 100 87 78 79 30 56 68 100 80 74 84 9 66 87 46 76 7 28 96 82 18 100 95
5 5 5 5 5 5 4 14 32 97 100 100 100 100 74 100 100 100 100 100 100 100 100 89 78 74 90 70 89 85 83 5 58 99 68 100 59 100
5 5 5 5 21 50 14 12 12 87 100 100 99 83 100 100 100 100 100 100 100 96 100 100 80 58 88 100 100 35 34 93 75 45 100 100 100 100
22 5 23 65 21 20 31 94 91 28 62 100 100 100 100 100 100 100 100 100 100 97 100 100 80 68 80 44 45 99 100 99 91 92 100 100 100 100
51 49 43 62 82 96 96 87 38 98 99 99 100 100 100 100 92 100 96 100 100 100 100 100 71 94 89 23 100 100 99 88 97 100 100 100 100 100
98 85 100 100 100 100 100 98 99 63 80 100 100 100 100 100 100 98 97 100 100 100 100 93 78 86 100 98 90 79 88 100 100 100 100 100 100 100
100 100 100 100 100 100 100 100 100 100 99 100 96 100 100 100 100 100 95 100 100 100 100 88 92 86 96 80 76 22 5 58 100 100 100 100 100 100
100 100 100 100 100 100 100 100 100 100 100 100 99 100 100 100 100 99 97 100 100 100 100 91 85 28 5 5 86 98 100 17 29 84 100 100 100 100
100 100 100 100 100 100 100 100 100 100 100 100 100 100 100 100 100 94 96 100 100 100 100 91 86 52 38 88 94 67 98 91 48 68 100 100 100 98
100 100 100 100 100 100 100 100 98 100 100 100 100 100 100 100 100 91 100 100 100 100 100 97 88 84 70 95 70 80 99 71 100 100 88 100 100 100